Voltar ao catálogo

FENGYUN 1C DEB

AtivoPO
NORAD 31562·DEBRIS·🇨🇳 China

Lançado May 10, 1999 de Taiyuan Satellite Launch Center

Loading…

Próximas Passagens (próximas 24 horas)

TLE

AtualizadoSource: Space-Track

Época: Sep 14, 2026, 10:30 UTC

1 31562U 99025BZD 26257.43785048  .00001627  00000-0  48744-3 0  9999
2 31562  99.2825  78.0033 0055901 191.8480 168.1396 14.43465231  9495

Acompanhe FENGYUN 1C DEB em tempo real com AllMySat

Download on the App Store